Helicity
61 72 65 62 75 80 82 78 85 90 87 78 74 66 63 51 42 42 52 43 40 36 32 40 70 62 96 138 108 36 43 28 76 13 22 44 59 93 94 119 85 66 90 113 174 118 294
129 139 148 176 178 172 180 189 172 125 88 74 70 68 71 76 65 56 55 59 54 54 55 46 68 79 95 90 68 57 90 42 38 49 73 54 111 62 107 115 83 16 19 109 156 152 120
116 128 154 157 168 159 142 131 117 121 128 145 93 71 75 74 84 78 69 57 62 62 63 67 77 107 92 58 87 116 118 59 23 38 27 70 44 134 137 92 99 28 92 130 147 151 -4
121 140 159 151 148 142 116 103 98 117 113 117 115 119 117 71 84 95 85 65 53 63 75 79 93 119 204 70 67 46 89 42 25 31 58 62 146 130 120 142 145 178 137 125 124 167 88
71 58 76 83 80 66 62 55 66 88 103 105 97 94 113 115 102 94 98 83 42 46 78 106 143 168 189 107 81 28 100 50 40 25 45 132 89 149 138 133 161 136 107 133 102 91 138
76 88 77 84 69 71 73 65 74 87 104 105 92 81 76 89 98 103 83 104 64 104 123 144 145 212 128 134 87 44 51 81 71 98 82 139 173 141 132 175 133 118 125 88 146 129 88
54 58 53 59 66 79 82 99 109 117 115 94 85 110 106 76 66 107 90 119 123 174 210 312 193 238 173 107 165 65 112 142 65 91 119 110 192 154 107 125 129 105 78 116 111 99 106
56 65 72 75 74 84 96 103 108 107 101 92 102 100 110 98 80 72 114 143 236 226 225 141 71 230 121 261 217 121 122 161 154 82 79 134 75 52 97 104 94 126 199 114 170 60 161
81 88 88 84 71 69 62 64 65 63 69 66 78 88 99 101 91 95 125 134 112 124 223 190 223 230 284 171 278 154 159 115 178 114 106 146 69 134 105 119 86 113 116 136 140 160 161
73 65 54 52 53 60 66 68 68 70 79 84 84 86 97 107 79 183 125 164 117 94 215 307 221 174 169 274 258 67 112 147 163 115 68 65 33 71 73 113 86 146 80 64 113 196 212
43 49 44 57 58 61 63 73 83 87 87 76 70 68 61 73 60 91 98 136 62 109 338 117 170 137 119 331 150 113 202 59 148 26 48 78 47 84 50 49 137 136 197 36 157 139 193
49 60 62 61 59 45 56 66 75 74 72 72 67 53 23 41 68 35 88 102 128 242 448 228 169 188 257 222 205 201 196 32 86 19 -41 13 95 122 39 50 129 133 88 147 152 149 187
63 61 65 68 64 70 76 73 63 64 70 59 45 49 -4 51 84 75 77 110 263 433 189 215 187 212 229 233 115 292 262 184 271 191 -36 -24 61 110 161 97 114 29 171 195 170 188 193
58 65 62 60 60 61 70 69 53 59 70 57 36 35 40 56 52 41 94 245 338 299 201 209 152 137 192 159 184 221 205 217 96 165 115 38 45 97 162 44 148 127 121 206 136 174 143
65 72 60 40 39 51 54 48 30 34 45 43 43 60 84 72 53 85 174 292 449 226 62 134 133 168 117 125 158 216 162 207 214 151 207 39 27 157 144 203 135 79 105 73 107 145 122
60 60 34 40 34 39 33 45 33 31 34 25 64 37 50 35 31 72 229 243 301 91 75 160 312 153 116 114 178 188 176 142 171 99 11 133 145 119 207 283 184 138 151 116 127 158 164
34 34 39 39 23 43 31 24 21 23 20 16 26 46 38 14 -9 106 246 255 120 22 47 201 228 307 102 66 121 175 184 143 177 158 -29 123 159 116 194 158 295 238 155 166 75 118 110
69 54 29 30 32 34 25 25 31 34 34 47 21 27 59 46 136 205 216 160 180 103 50 48 178 240 290 194 151 81 126 115 56 186 128 46 221 160 170 202 138 182 226 173 154 133 122
57 56 41 27 25 31 23 27 39 30 33 53 72 73 2 31 133 66 24 87 117 37 42 89 65 207 239 289 129 94 80 88 52 121 157 147 334 366 176 100 178 192 164 195 177 208 147
57 40 33 16 9 33 33 34 39 31 29 76 55 92 24 22 59 25 108 217 165 162 113 3 133 92 94 145 148 144 172 60 177 111 140 211 341 354 382 204 250 278 161 209 256 208 187
51 33 4 8 20 31 34 36 36 31 25 88 81 97 98 89 4 15 -90 -26 155 179 112 121 61 205 184 99 55 137 250 75 101 188 205 258 136 156 149 180 182 151 214 227 276 209 252
23 19 -7 14 33 24 31 25 33 38 36 107 137 116 111 85 34 20 34 -37 18 106 61 22 47 190 312 87 198 85 230 170 108 110 196 350 297 143 111 150 201 119 71 206 206 276 199
25 23 0 13 27 34 24 33 20 19 44 104 124 125 119 102 66 51 37 24 63 49 -109 31 68 14 250 191 196 100 -8 4 69 133 158 221 291 257 136 201 273 229 96 108 91 157 171
10 13 6 22 21 31 22 17 15 20 34 87 127 118 152 115 86 71 25 9 -4 13 7 -21 -8 11 132 82 205 76 -20 -9 -8 101 118 260 288 261 216 262 186 81 152 150 79 81 106
18 18 21 16 17 20 22 15 23 19 21 66 77 108 156 141 98 28 2 -6 -12 -30 34 -74 -30 -47 -26 128 120 33 76 78 58 178 158 134 257 283 282 274 179 115 131 214 260 149 130
19 13 6 16 14 16 16 13 25 13 19 62 85 83 125 150 100 -28 -24 -44 -73 -39 26 -95 -66 -66 -107 107 121 194 176 169 113 167 163 165 124 196 254 230 171 134 164 233 243 136 125
13 9 11 12 17 16 17 17 9 13 12 57 82 73 103 58 -67 -68 -44 -75 -69 -77 -69 -145 -158 8 108 -11 38 228 211 209 260 194 214 245 222 160 224 253 187 157 165 247 200 110 155
18 12 18 20 16 15 20 18 10 8 7 45 64 56 88 57 -90 -39 -62 -94 -75 -68 -63 25 -123 14 175 36 98 179 216 227 301 258 240 238 239 214 210 261 224 153 218 199 183 210 267
18 19 22 23 14 13 12 12 12 13 14 21 34 53 60 -68 -55 -41 29 17 -10 -62 -29 -37 21 101 63 58 103 112 220 386 367 311 356 238 249 276 280 270 225 233 190 205 195 228 306
Wind_Speed
60 62 62 62 62 64 65 68 69 70 71 71 70 70 71 71 69 58 48 44 52 50 47 42 41 37 32 30 18 18 30 29 25 47 57 59 58 66 87 80 83 86 79 88 86 89 80
65 67 68 69 68 69 71 73 75 74 72 72 72 71 71 72 71 65 54 45 41 46 43 40 36 32 27 32 25 19 19 25 24 34 58 56 56 60 71 89 86 74 82 79 81 82 93
70 70 71 72 73 73 76 78 75 75 75 77 76 74 72 73 72 71 64 54 45 38 38 36 31 25 22 16 27 25 18 16 12 30 53 55 61 59 57 72 73 86 71 70 75 72 73
68 70 70 71 73 76 76 77 78 78 79 79 80 81 81 73 74 73 69 65 49 39 32 32 28 24 28 23 7 6 13 16 25 40 49 47 57 65 60 59 60 67 68 90 77 70 66
69 70 71 71 72 72 73 75 76 78 79 81 83 84 84 82 79 75 74 71 56 40 29 25 27 26 35 29 8 1 7 9 18 32 42 47 48 61 59 73 78 77 91 90 79 68 64
68 69 68 70 72 74 76 76 79 79 81 81 82 84 85 86 83 81 75 75 47 41 28 23 23 32 24 23 18 6 5 5 15 19 37 47 54 65 66 77 105 95 102 87 87 79 82
68 68 70 73 74 76 77 79 80 82 83 83 85 88 86 85 85 82 81 55 49 45 28 30 28 23 35 4 18 10 5 5 6 18 33 42 63 85 80 79 84 83 85 87 77 70 87
68 70 72 74 75 77 79 81 83 84 86 87 89 90 89 91 89 80 62 48 52 51 65 37 35 32 21 17 19 11 5 4 13 30 32 44 88 85 74 75 82 93 84 92 69 62 74
69 72 74 76 78 79 80 82 85 85 87 88 90 91 91 93 92 62 43 56 59 59 65 61 41 41 34 29 25 14 15 9 16 23 29 45 58 67 76 78 87 90 90 85 79 58 66
71 73 76 78 80 82 84 86 86 87 88 89 91 92 92 96 65 67 54 52 53 44 67 63 47 35 20 13 25 25 28 10 9 26 27 55 80 69 75 90 80 94 72 76 67 63 84
70 74 76 78 81 83 84 86 87 90 91 91 92 93 89 85 65 57 55 65 52 39 78 44 28 28 12 12 27 11 30 23 15 19 22 30 63 79 72 90 71 80 70 55 54 58 59
72 75 77 79 82 84 85 86 88 89 90 91 94 95 94 75 59 56 55 55 39 50 71 44 33 30 12 16 25 7 24 23 13 9 30 65 54 58 64 67 72 44 47 45 50 58 87
74 77 78 80 82 83 84 87 89 90 91 92 95 98 91 68 56 55 53 41 47 63 43 45 48 29 17 23 21 8 17 37 21 20 33 26 63 57 48 61 54 56 65 69 73 82 92
75 77 80 81 81 82 83 86 88 91 93 95 97 100 76 60 54 47 37 39 61 51 49 46 46 33 32 26 30 16 17 33 42 25 17 25 36 48 62 76 71 67 61 70 84 83 78
77 79 80 81 80 82 83 84 86 88 90 95 100 84 73 60 53 31 34 49 49 50 57 61 57 53 45 38 38 28 28 40 42 47 19 30 57 36 60 63 63 76 90 76 63 59 68
80 81 79 80 82 84 81 81 85 88 91 95 87 82 63 59 46 32 44 55 53 61 73 71 79 49 58 50 47 35 34 30 42 64 45 34 49 57 55 58 69 70 71 84 74 83 87
80 81 82 79 81 81 80 80 81 83 88 93 78 79 54 58 59 44 57 64 69 85 91 78 89 86 77 64 50 52 55 51 44 48 65 50 55 52 51 78 68 71 76 73 74 82 86
81 82 81 79 81 79 78 77 77 81 85 78 70 82 68 72 68 56 66 66 68 78 94 95 81 98 94 86 81 82 68 61 39 37 64 47 44 60 68 60 76 82 77 73 83 89 84
81 80 78 78 77 78 78 77 76 76 77 77 77 78 57 54 66 67 71 78 82 84 76 75 92 90 91 96 89 80 94 68 76 42 46 54 61 60 57 64 67 75 74 72 73 60 84
81 80 77 78 78 75 75 75 73 72 71 70 69 79 68 61 55 63 75 78 73 70 81 76 89 86 102 114 105 94 92 76 66 60 56 53 67 76 71 68 50 74 66 71 70 88 80
83 81 79 78 73 74 73 72 72 70 64 61 60 67 63 77 75 83 75 78 90 85 67 67 72 73 82 99 110 114 101 75 60 62 63 58 68 93 90 75 55 67 79 79 80 81 79
85 83 80 79 75 74 74 71 65 63 56 53 60 61 55 66 68 73 82 83 86 88 70 88 83 82 91 101 97 108 104 89 75 62 68 63 74 79 98 75 74 71 73 71 79 75 78
86 81 79 76 74 76 73 70 63 56 51 48 39 42 52 60 70 70 70 77 86 87 83 76 88 91 102 99 98 104 112 104 85 77 74 79 77 67 87 68 66 88 83 73 82 76 77
83 80 78 76 74 72 69 65 62 56 45 42 39 46 50 61 62 70 80 84 87 83 97 102 92 90 89 95 103 100 110 99 90 78 68 74 76 71 66 59 94 89 59 73 80 74 69
81 79 75 74 70 66 62 62 65 61 53 47 45 43 48 55 63 78 80 81 85 90 88 85 86 86 82 84 81 84 92 89 80 73 74 69 64 68 75 74 69 68 62 61 68 83 67
78 77 71 69 66 62 62 67 72 74 63 56 49 45 42 47 68 79 83 84 81 84 88 79 76 80 76 72 72 78 95 84 83 72 67 68 70 69 65 79 89 69 50 47 46 84 52
73 71 69 68 67 63 65 76 81 76 69 56 52 41 39 27 66 69 75 82 80 77 73 68 67 79 78 78 71 71 71 73 86 86 72 72 70 80 71 71 64 52 46 39 59 66 40
68 67 71 73 75 76 76 79 79 74 72 61 52 43 37 45 77 75 73 75 74 69 72 72 65 47 52 62 60 48 66 70 69 75 76 75 71 77 70 70 77 40 39 50 46 34 19
72 70 71 75 79 78 76 74 73 72 69 67 72 56 56 71 75 76 76 72 83 74 72 66 66 68 54 49 40 51 41 47 56 77 69 83 70 69 67 68 41 37 37 30 28 18 15
Wind_Direction
351 349 347 348 349 348 348 344 345 345 342 341 341 341 340 342 345 349 351 347 340 343 346 352 357 4 15 6 349 344 353 348 292 272 257 253 252 249 241 244 246 246 246 244 243 249 252
347 345 344 346 347 347 346 344 341 338 336 333 334 337 339 341 342 345 347 347 345 340 345 349 354 2 5 347 7 9 349 350 298 279 256 252 255 253 253 244 247 250 248 249 244 242 244
340 339 340 339 339 341 339 337 336 331 327 331 329 332 335 336 339 340 342 342 341 342 340 344 352 357 344 336 13 16 6 335 330 279 261 255 255 256 257 252 256 250 248 246 243 241 248
343 343 343 341 340 338 337 332 325 328 328 327 329 327 328 332 333 334 336 335 336 336 337 339 346 347 334 353 346 270 19 340 304 279 266 267 263 258 256 260 254 246 246 241 241 238 246
342 340 341 341 341 340 334 333 334 331 329 326 326 326 326 327 328 330 330 330 329 328 331 341 340 337 329 356 334 320 146 345 313 288 271 263 265 254 255 247 243 242 239 240 242 238 243
344 345 345 343 339 335 335 334 334 334 333 332 330 327 326 325 325 327 328 326 329 330 330 334 324 334 321 335 352 7 186 152 311 297 274 259 258 250 247 239 233 236 237 243 241 237 235
345 345 344 341 339 338 337 337 336 336 335 334 332 330 327 325 323 323 325 332 329 325 300 306 319 313 332 301 1 4 102 123 280 281 271 257 252 240 240 241 242 243 243 245 243 243 236
347 346 344 343 342 341 339 338 338 336 334 332 331 329 328 325 324 320 325 322 329 328 314 281 281 272 284 325 318 306 151 180 183 192 267 258 243 240 243 242 243 241 245 243 250 246 239
347 346 345 344 342 342 340 339 336 335 334 332 330 329 328 327 322 325 322 318 318 322 308 302 275 267 262 252 274 247 194 222 201 222 214 247 262 245 242 240 239 240 240 244 243 243 246
346 346 344 343 341 340 338 337 337 336 334 333 330 329 328 328 329 328 325 332 332 329 310 309 311 307 239 251 280 218 190 236 238 212 236 259 246 246 240 238 239 238 244 248 241 237 239
347 345 343 342 340 338 338 338 338 335 334 333 331 329 328 328 322 320 318 326 328 328 305 325 321 342 335 207 335 224 184 188 210 194 210 254 245 243 236 236 239 244 249 245 240 243 245
345 344 343 341 339 337 337 337 336 336 336 335 333 329 324 327 324 317 317 318 322 305 297 309 316 316 297 230 314 9 175 178 230 219 197 250 254 245 237 239 241 240 245 240 247 247 240
343 342 341 340 339 338 338 337 336 336 335 334 333 329 323 323 319 322 319 318 300 289 314 307 305 303 270 280 274 205 191 186 184 189 190 222 247 247 243 231 239 234 233 232 236 236 236
341 340 339 338 338 338 338 337 335 335 334 333 331 327 326 321 318 314 312 302 285 299 282 317 310 301 279 283 275 250 219 197 191 183 196 191 237 237 233 230 233 225 223 228 232 233 237
339 337 337 336 335 336 336 336 336 336 335 333 330 331 328 327 323 317 295 277 289 295 298 302 295 288 281 269 288 261 234 206 194 184 193 189 220 239 238 234 234 232 232 234 253 248 243
336 335 334 335 334 333 334 335 335 335 335 334 333 330 329 335 329 310 287 268 288 287 294 301 291 280 281 274 267 257 258 227 205 194 187 273 254 242 243 237 240 238 237 234 241 238 238
334 333 333 333 334 334 334 333 334 335 335 335 333 327 332 337 331 302 287 291 287 281 284 291 284 279 276 275 263 261 272 270 202 199 194 257 258 250 245 235 231 235 236 238 242 245 243
334 334 333 332 332 333 333 333 333 333 334 337 332 322 327 321 311 304 296 294 300 290 283 279 282 274 270 271 275 263 263 265 268 235 200 206 264 249 244 252 239 235 237 235 239 240 246
334 332 331 332 332 332 332 331 331 332 334 333 326 323 333 332 308 303 301 296 297 292 291 286 273 271 272 268 271 270 257 265 256 239 234 222 251 245 249 251 243 239 235 237 243 251 245
335 334 332 331 330 330 330 330 330 331 333 332 326 321 325 322 311 309 310 303 299 300 292 288 281 277 268 262 261 264 263 264 261 256 243 238 247 244 244 250 248 239 237 237 242 244 247
335 333 332 331 331 330 329 328 328 329 331 330 324 319 323 314 310 307 306 301 294 294 296 301 284 280 276 265 260 255 258 266 264 258 246 241 242 245 247 254 253 248 240 238 239 245 246
334 333 331 331 330 329 329 328 328 330 333 326 319 321 325 316 316 311 304 298 295 289 292 288 283 281 277 267 266 257 254 260 258 256 248 245 251 251 247 255 253 252 246 241 242 245 250
334 332 332 330 330 330 330 331 332 331 333 328 330 328 323 320 315 311 305 300 294 292 284 284 287 285 274 272 274 265 256 256 271 252 246 242 246 252 249 251 253 250 245 243 247 247 246
335 334 332 332 332 333 334 333 331 330 330 328 328 326 320 315 316 309 302 294 291 290 277 275 279 278 274 283 277 265 250 253 260 252 248 242 241 247 251 248 247 253 252 249 249 250 249
335 334 334 333 335 336 336 335 330 328 327 324 324 322 319 315 315 302 295 291 287 284 275 270 273 270 278 282 268 254 242 243 246 245 242 243 238 243 244 247 255 256 254 249 246 252 249
337 336 336 336 337 337 336 332 325 318 321 321 321 318 317 319 305 286 280 281 280 280 271 268 273 274 275 273 254 242 231 234 233 238 242 240 238 241 243 245 248 255 258 257 255 254 249
340 341 340 338 337 336 334 324 317 314 317 323 320 321 318 299 258 270 279 275 278 272 257 263 276 273 268 239 249 233 238 231 232 231 234 232 236 236 243 246 255 260 256 252 249 260 250
344 341 338 336 332 328 325 320 314 312 314 321 323 326 321 293 265 262 261 261 264 254 252 263 270 253 260 234 241 249 243 235 236 232 231 231 232 237 240 245 249 260 251 249 261 271 234
344 342 339 334 327 324 323 322 320 318 316 315 305 322 319 267 261 264 260 255 254 243 249 251 246 255 249 249 263 252 254 233 234 234 237 236 239 238 241 245 263 264 264 269 270 249 230